sat.trackr.live / text

‹ back to catalog

STARLINK-36917

NORAD 68059 · 2026-041V

PAYLOAD ACTIVE UNKNOWN

§ Identity

Operator
Country
US
Launch date
2026-03-02
Launch site
AFETR
Launch vehicle
Mass (kg)
RCS (m²)

Purposes: comms

External: N2YO · Heavens-Above · Gunter

§ Orbital elements

Epoch: 2026-09-19T12:18:34.237728Z

Period
93.85 min
Inclination
53.1560°
Eccentricity
0.0002049
Mean motion
15.34407340 rev/d
Perigee alt
461.3 km
Apogee alt
464.1 km
Semi-major
6,840.8 km
B*
4.7840e-4
RAAN
224.6021°
Arg perigee
98.6005°
Mean anomaly
261.5229°
Rev number
3,113

§ Raw data

STARLINK-369171 68059U 26041V   26262.51289627  .00015825  00000+0  47840-3 0  99952 68059  53.1560 224.6021 0002049  98.6005 261.5229 15.34407340 31136

JSON: /api/v1/satellites/68059 · /tle

For live sub-satellite position, see the globe view (requires WebGL).

§ Visibility from observer

Set your observer location to see the next 7 days of passes ≥ 10°. The values pass through the URL so the page stays shareable.

No JS? Fill the form by hand. The geolocation button needs JavaScript.